Time,TemperatureF,DewpointF,PressureIn,WindDirection,WindDirectionDegrees,WindSpeedMPH,WindSpeedGustMPH,Humidity,HourlyPrecipIn,Conditions,Clouds,dailyrainin,SoftwareType,DateUTC
2013-03-26 00:02:00,46.0,13.0,30.12,SSW,201,0.0,1.0,26,0.00,,,0.00,,2013-03-26 06:02:00,
2013-03-26 00:12:00,46.0,13.0,30.12,SSW,201,0.0,1.0,26,0.00,,,0.00,,2013-03-26 06:12:00,
2013-03-26 00:22:00,45.0,12.0,30.12,SSW,201,0.0,1.0,26,0.00,,,0.00,,2013-03-26 06:22:00,
2013-03-26 00:32:00,44.0,12.0,30.12,SSW,201,0.0,1.0,27,0.00,,,0.00,,2013-03-26 06:32:00,
2013-03-26 00:42:00,44.0,12.0,30.12,SSW,201,0.0,1.0,27,0.00,,,0.00,,2013-03-26 06:42:00,
2013-03-26 00:52:00,44.0,12.0,30.13,SSW,201,0.0,1.0,27,0.00,,,0.00,,2013-03-26 06:52:00,
2013-03-26 01:02:00,44.0,14.0,30.13,SSW,201,0.0,0.0,29,0.00,,,0.00,,2013-03-26 07:02:00,
2013-03-26 01:12:00,44.0,14.0,30.13,SSW,201,0.0,0.0,29,0.00,,,0.00,,2013-03-26 07:12:00,
2013-03-26 01:22:00,44.0,14.0,30.14,SSW,201,0.0,1.0,29,0.00,,,0.00,,2013-03-26 07:22:00,
2013-03-26 01:33:00,43.0,14.0,30.14,SSW,201,0.0,3.0,30,0.00,,,0.00,,2013-03-26 07:33:00,
2013-03-26 01:42:00,43.0,14.0,30.14,SSW,201,0.0,3.0,30,0.00,,,0.00,,2013-03-26 07:42:00,
2013-03-26 01:52:00,43.0,14.0,30.14,SSW,201,0.0,1.0,31,0.00,,,0.00,,2013-03-26 07:52:00,
2013-03-26 02:02:00,43.0,14.0,30.14,SSW,201,0.0,0.0,31,0.00,,,0.00,,2013-03-26 08:02:00,
2013-03-26 02:12:00,43.0,14.0,30.14,SSW,201,0.0,0.0,31,0.00,,,0.00,,2013-03-26 08:12:00,
2013-03-26 02:22:00,42.0,14.0,30.14,SSW,201,0.0,0.0,31,0.00,,,0.00,,2013-03-26 08:22:00,
2013-03-26 02:32:00,41.0,15.0,30.15,SSW,201,0.0,1.0,34,0.00,,,0.00,,2013-03-26 08:32:00,
2013-03-26 02:42:00,41.0,15.0,30.15,SSW,201,0.0,1.0,34,0.00,,,0.00,,2013-03-26 08:42:00,
2013-03-26 02:52:00,41.0,15.0,30.14,SSW,201,0.0,0.0,34,0.00,,,0.00,,2013-03-26 08:52:00,
2013-03-26 03:02:00,41.0,15.0,30.14,SSW,201,0.0,0.0,34,0.00,,,0.00,,2013-03-26 09:02:00,
2013-03-26 03:12:00,41.0,15.0,30.14,SSW,201,0.0,0.0,34,0.00,,,0.00,,2013-03-26 09:12:00,
2013-03-26 03:22:00,40.0,15.0,30.14,SSW,201,0.0,3.0,35,0.00,,,0.00,,2013-03-26 09:22:00,
2013-03-26 03:33:00,39.0,14.0,30.14,SSW,201,0.0,1.0,36,0.00,,,0.00,,2013-03-26 09:33:00,
2013-03-26 03:43:00,39.0,14.0,30.14,SSW,201,0.0,1.0,36,0.00,,,0.00,,2013-03-26 09:43:00,
2013-03-26 03:52:00,39.0,14.0,30.14,SSW,201,0.0,1.0,35,0.00,,,0.00,,2013-03-26 09:52:00,
2013-03-26 04:02:00,39.0,14.0,30.14,SSW,201,0.0,1.0,35,0.00,,,0.00,,2013-03-26 10:02:00,
2013-03-26 04:12:00,39.0,14.0,30.14,SSW,201,0.0,1.0,35,0.00,,,0.00,,2013-03-26 10:12:00,
2013-03-26 04:22:00,39.0,16.0,30.14,SSW,201,0.0,1.0,38,0.00,,,0.00,,2013-03-26 10:22:00,
2013-03-26 04:32:00,39.0,14.0,30.14,SSW,201,0.0,1.0,35,0.00,,,0.00,,2013-03-26 10:32:00,
2013-03-26 04:42:00,39.0,14.0,30.14,SSW,201,0.0,1.0,35,0.00,,,0.00,,2013-03-26 10:42:00,
2013-03-26 04:52:00,38.0,13.0,30.14,SSW,201,0.0,2.0,36,0.00,,,0.00,,2013-03-26 10:52:00,
2013-03-26 05:03:00,38.0,13.0,30.15,SSW,201,0.0,1.0,35,0.00,,,0.00,,2013-03-26 11:03:00,
2013-03-26 05:12:00,38.0,13.0,30.15,SSW,201,0.0,1.0,35,0.00,,,0.00,,2013-03-26 11:12:00,
2013-03-26 05:22:00,39.0,14.0,30.15,SSW,201,0.0,3.0,36,0.00,,,0.00,,2013-03-26 11:22:00,
2013-03-26 05:32:00,38.0,13.0,30.15,SSW,201,0.0,0.0,36,0.00,,,0.00,,2013-03-26 11:32:00,
2013-03-26 05:42:00,38.0,13.0,30.15,SSW,201,0.0,0.0,36,0.00,,,0.00,,2013-03-26 11:42:00,
2013-03-26 05:52:00,37.0,13.0,30.15,SSW,201,0.0,3.0,37,0.00,,,0.00,,2013-03-26 11:52:00,
2013-03-26 06:03:00,37.0,13.0,30.15,SSW,201,0.0,3.0,37,0.00,,,0.00,,2013-03-26 12:03:00,
2013-03-26 06:12:00,37.0,13.0,30.16,SSW,201,0.0,0.0,36,0.00,,,0.00,,2013-03-26 12:12:00,
2013-03-26 06:22:00,35.0,12.0,30.16,SSW,201,0.0,0.0,38,0.00,,,0.00,,2013-03-26 12:22:00,
2013-03-26 06:32:00,35.0,12.0,30.16,SSW,201,0.0,0.0,38,0.00,,,0.00,,2013-03-26 12:32:00,
2013-03-26 06:42:00,35.0,12.0,30.16,SSW,201,0.0,0.0,38,0.00,,,0.00,,2013-03-26 12:42:00,
2013-03-26 06:52:00,37.0,13.0,30.17,SSW,201,0.0,3.0,36,0.00,,,0.00,,2013-03-26 12:52:00,
2013-03-26 07:03:00,37.0,13.0,30.18,SSW,201,0.0,1.0,36,0.00,,,0.00,,2013-03-26 13:03:00,
2013-03-26 07:12:00,37.0,13.0,30.18,SSW,201,0.0,1.0,36,0.00,,,0.00,,2013-03-26 13:12:00,
2013-03-26 07:22:00,37.0,13.0,30.18,SSW,201,0.0,1.0,37,0.00,,,0.00,,2013-03-26 13:22:00,
2013-03-26 07:32:00,36.0,12.0,30.19,SSW,201,0.0,1.0,37,0.00,,,0.00,,2013-03-26 13:32:00,
2013-03-26 07:42:00,36.0,12.0,30.19,SSW,201,0.0,1.0,37,0.00,,,0.00,,2013-03-26 13:42:00,
2013-03-26 07:52:00,37.0,13.0,30.19,SSW,201,0.0,1.0,37,0.00,,,0.00,,2013-03-26 13:52:00,
2013-03-26 08:02:00,37.0,13.0,30.19,SSW,201,0.0,0.0,36,0.00,,,0.00,,2013-03-26 14:02:00,
2013-03-26 08:11:00,37.0,13.0,30.19,SSW,201,0.0,0.0,36,0.00,,,0.00,,2013-03-26 14:11:00,
2013-03-26 08:22:00,39.0,14.0,30.20,SSW,201,0.0,0.0,35,0.00,,,0.00,,2013-03-26 14:22:00,
2013-03-26 08:32:00,39.0,14.0,30.20,SSW,201,0.0,0.0,35,0.00,,,0.00,,2013-03-26 14:32:00,
2013-03-26 08:42:00,39.0,14.0,30.20,SSW,201,0.0,0.0,35,0.00,,,0.00,,2013-03-26 14:42:00,
2013-03-26 08:52:00,42.0,14.0,30.21,SSW,201,0.0,0.0,31,0.00,,,0.00,,2013-03-26 14:52:00,
2013-03-26 09:02:00,44.0,15.0,30.21,SSW,201,0.0,1.0,31,0.00,,,0.00,,2013-03-26 15:02:00,
2013-03-26 09:12:00,44.0,15.0,30.21,SSW,201,0.0,1.0,31,0.00,,,0.00,,2013-03-26 15:12:00,
2013-03-26 09:22:00,45.0,16.0,30.21,SSW,201,0.0,1.0,31,0.00,,,0.00,,2013-03-26 15:22:00,
2013-03-26 09:33:00,45.0,16.0,30.21,SSW,202,0.0,3.0,31,0.00,,,0.00,,2013-03-26 15:33:00,
2013-03-26 09:43:00,45.0,16.0,30.21,SSW,202,0.0,3.0,31,0.00,,,0.00,,2013-03-26 15:43:00,
2013-03-26 09:52:00,47.0,17.0,30.21,SSW,202,0.0,1.0,30,0.00,,,0.00,,2013-03-26 15:52:00,
2013-03-26 10:02:00,48.0,17.0,30.21,SSW,201,0.0,2.0,29,0.00,,,0.00,,2013-03-26 16:02:00,
2013-03-26 10:12:00,48.0,17.0,30.21,SSW,201,0.0,2.0,29,0.00,,,0.00,,2013-03-26 16:12:00,
2013-03-26 10:22:00,51.0,19.0,30.21,SSW,201,0.0,1.0,28,0.00,,,0.00,,2013-03-26 16:22:00,
2013-03-26 10:32:00,53.0,19.0,30.20,SSW,202,0.0,1.0,26,0.00,,,0.00,,2013-03-26 16:32:00,
2013-03-26 10:42:00,53.0,19.0,30.20,SSW,202,0.0,1.0,26,0.00,,,0.00,,2013-03-26 16:42:00,
2013-03-26 10:53:00,57.0,21.0,30.19,South,191,4.0,10.0,24,0.00,,,0.00,,2013-03-26 16:53:00,
2013-03-26 11:02:00,58.0,20.0,30.19,South,180,3.0,10.0,23,0.00,,,0.00,,2013-03-26 17:02:00,
2013-03-26 11:12:00,58.0,20.0,30.19,South,180,3.0,10.0,23,0.00,,,0.00,,2013-03-26 17:12:00,
2013-03-26 11:23:00,58.0,20.0,30.19,SSW,198,5.0,11.0,23,0.00,,,0.00,,2013-03-26 17:23:00,
2013-03-26 11:32:00,59.0,20.0,30.18,South,177,1.0,10.0,22,0.00,,,0.00,,2013-03-26 17:32:00,
2013-03-26 11:42:00,59.0,20.0,30.18,South,177,1.0,10.0,22,0.00,,,0.00,,2013-03-26 17:42:00,
2013-03-26 11:52:00,60.0,21.0,30.18,South,183,3.0,11.0,22,0.00,,,0.00,,2013-03-26 17:52:00,
2013-03-26 12:02:00,59.0,20.0,30.17,SSW,202,6.0,11.0,22,0.00,,,0.00,,2013-03-26 18:02:00,
2013-03-26 12:12:00,59.0,20.0,30.17,SSW,202,6.0,11.0,22,0.00,,,0.00,,2013-03-26 18:12:00,
2013-03-26 12:23:00,59.0,20.0,30.17,South,177,4.0,12.0,22,0.00,,,0.00,,2013-03-26 18:23:00,
2013-03-26 12:34:00,60.0,20.0,30.17,SW,229,4.0,11.0,21,0.00,,,0.00,,2013-03-26 18:34:00,
2013-03-26 12:42:00,60.0,20.0,30.17,SW,229,4.0,11.0,21,0.00,,,0.00,,2013-03-26 18:42:00,
2013-03-26 12:52:00,60.0,20.0,30.17,SW,229,4.0,11.0,21,0.00,,,0.00,,2013-03-26 18:52:00,
2013-03-26 13:02:00,61.0,21.0,30.15,SSW,203,4.0,10.0,21,0.00,,,0.00,,2013-03-26 19:02:00,
2013-03-26 13:12:00,61.0,21.0,30.15,SSW,203,4.0,10.0,21,0.00,,,0.00,,2013-03-26 19:12:00,
2013-03-26 13:22:00,62.0,22.0,30.14,South,188,5.0,10.0,21,0.00,,,0.00,,2013-03-26 19:22:00,
2013-03-26 13:32:00,64.0,22.0,30.13,SW,226,4.0,9.0,20,0.00,,,0.00,,2013-03-26 19:32:00,
2013-03-26 13:42:00,64.0,22.0,30.13,SW,226,4.0,9.0,20,0.00,,,0.00,,2013-03-26 19:42:00,
2013-03-26 13:53:00,63.0,21.0,30.12,SSW,196,4.0,10.0,20,0.00,,,0.00,,2013-03-26 19:53:00,
2013-03-26 14:02:00,64.0,22.0,30.11,SSW,211,5.0,11.0,20,0.00,,,0.00,,2013-03-26 20:02:00,
2013-03-26 14:12:00,64.0,22.0,30.11,SSW,211,5.0,11.0,20,0.00,,,0.00,,2013-03-26 20:12:00,
2013-03-26 14:22:00,66.0,23.0,30.10,SSW,212,4.0,11.0,19,0.00,,,0.00,,2013-03-26 20:22:00,
2013-03-26 14:32:00,66.0,23.0,30.09,South,185,3.0,9.0,19,0.00,,,0.00,,2013-03-26 20:32:00,
2013-03-26 14:40:00,67.0,22.0,30.07,South,191,4.0,11.0,18,0.00,,,0.00,,2013-03-26 20:40:00,
2013-03-26 14:42:00,66.0,23.0,30.09,South,185,3.0,9.0,19,0.00,,,0.00,,2013-03-26 20:42:00,
2013-03-26 14:52:00,66.0,21.0,30.08,South,177,1.0,8.0,18,0.00,,,0.00,,2013-03-26 20:52:00,
2013-03-26 15:02:00,67.0,22.0,30.07,South,191,4.0,11.0,18,0.00,,,0.00,,2013-03-26 21:02:00,
2013-03-26 15:12:00,67.0,22.0,30.07,South,191,4.0,11.0,18,0.00,,,0.00,,2013-03-26 21:12:00,
2013-03-26 15:22:00,67.0,22.0,30.07,South,191,4.0,11.0,18,0.00,,,0.00,,2013-03-26 21:22:00,
2013-03-26 15:33:00,67.0,22.0,30.07,South,191,4.0,11.0,18,0.00,,,0.00,,2013-03-26 21:33:00,
2013-03-26 16:22:00,71.0,24.0,30.01,SSW,200,3.0,9.0,17,0.00,,,0.00,,2013-03-26 22:22:00,
2013-03-26 16:33:00,71.0,24.0,30.01,SSW,200,3.0,9.0,17,0.00,,,0.00,,2013-03-26 22:33:00,
2013-03-26 16:42:00,71.0,24.0,30.01,SSW,200,3.0,9.0,17,0.00,,,0.00,,2013-03-26 22:42:00,
2013-03-26 16:52:00,71.0,24.0,30.01,SSW,200,3.0,9.0,17,0.00,,,0.00,,2013-03-26 22:52:00,
2013-03-26 17:22:00,69.0,22.0,29.98,South,181,2.0,10.0,17,0.00,,,0.00,,2013-03-26 23:22:00,
2013-03-26 17:32:00,68.0,23.0,29.98,SSW,196,3.0,10.0,18,0.00,,,0.00,,2013-03-26 23:32:00,
2013-03-26 17:42:00,68.0,23.0,29.98,SSW,196,3.0,10.0,18,0.00,,,0.00,,2013-03-26 23:42:00,
2013-03-26 17:52:00,69.0,24.0,29.98,South,170,2.0,8.0,18,0.00,,,0.00,,2013-03-26 23:52:00,
2013-03-26 18:02:00,71.0,24.0,29.97,SSE,165,3.0,10.0,17,0.00,,,0.00,,2013-03-27 00:02:00,
2013-03-26 18:12:00,71.0,24.0,29.97,SSE,165,3.0,10.0,17,0.00,,,0.00,,2013-03-27 00:12:00,
2013-03-26 18:22:00,69.0,24.0,29.96,South,191,2.0,8.0,18,0.00,,,0.00,,2013-03-27 00:22:00,
2013-03-26 18:32:00,70.0,23.0,29.96,South,174,0.0,8.0,17,0.00,,,0.00,,2013-03-27 00:32:00,
2013-03-26 18:42:00,70.0,23.0,29.96,South,174,0.0,8.0,17,0.00,,,0.00,,2013-03-27 00:42:00,
2013-03-26 18:52:00,68.0,23.0,29.96,South,179,2.0,7.0,18,0.00,,,0.00,,2013-03-27 00:52:00,
2013-03-26 19:02:00,67.0,22.0,29.96,South,172,0.0,3.0,18,0.00,,,0.00,,2013-03-27 01:02:00,
2013-03-26 19:12:00,67.0,22.0,29.96,South,172,0.0,3.0,18,0.00,,,0.00,,2013-03-27 01:12:00,
2013-03-26 19:22:00,66.0,23.0,29.95,SSE,166,1.0,6.0,19,0.00,,,0.00,,2013-03-27 01:22:00,
2013-03-26 19:33:00,67.0,22.0,29.95,SSE,156,0.0,6.0,18,0.00,,,0.00,,2013-03-27 01:33:00,
2013-03-26 19:42:00,67.0,22.0,29.95,SSE,156,0.0,6.0,18,0.00,,,0.00,,2013-03-27 01:42:00,
2013-03-26 19:52:00,66.0,23.0,29.95,SSE,153,0.0,2.0,19,0.00,,,0.00,,2013-03-27 01:52:00,
2013-03-26 20:03:00,64.0,21.0,29.96,SSE,153,0.0,1.0,19,0.00,,,0.00,,2013-03-27 02:03:00,
2013-03-26 20:12:00,64.0,21.0,29.96,SSE,153,0.0,1.0,19,0.00,,,0.00,,2013-03-27 02:12:00,
2013-03-26 20:22:00,63.0,24.0,29.96,SSE,153,0.0,0.0,22,0.00,,,0.00,,2013-03-27 02:22:00,
2013-03-26 20:32:00,62.0,22.0,29.96,SSE,153,0.0,0.0,21,0.00,,,0.00,,2013-03-27 02:32:00,
2013-03-26 20:42:00,62.0,22.0,29.96,SSE,153,0.0,0.0,21,0.00,,,0.00,,2013-03-27 02:42:00,
2013-03-26 20:52:00,60.0,20.0,29.96,SSE,153,0.0,0.0,21,0.00,,,0.00,,2013-03-27 02:52:00,
2013-03-26 21:02:00,59.0,21.0,29.96,SSE,153,0.0,0.0,23,0.00,,,0.00,,2013-03-27 03:02:00,
2013-03-26 21:12:00,59.0,21.0,29.96,SSE,153,0.0,0.0,23,0.00,,,0.00,,2013-03-27 03:12:00,
2013-03-26 21:22:00,59.0,22.0,29.96,SSE,153,0.0,0.0,24,0.00,,,0.00,,2013-03-27 03:22:00,
2013-03-26 21:33:00,59.0,21.0,29.96,SSE,153,0.0,0.0,23,0.00,,,0.00,,2013-03-27 03:33:00,
2013-03-26 21:42:00,59.0,21.0,29.96,SSE,153,0.0,0.0,23,0.00,,,0.00,,2013-03-27 03:42:00,
2013-03-26 21:52:00,59.0,23.0,29.97,SSE,153,0.0,0.0,25,0.00,,,0.00,,2013-03-27 03:52:00,
2013-03-26 22:02:00,58.0,22.0,29.96,SSE,153,0.0,0.0,25,0.00,,,0.00,,2013-03-27 04:02:00,
2013-03-26 22:13:00,58.0,22.0,29.96,SSE,153,0.0,0.0,25,0.00,,,0.00,,2013-03-27 04:13:00,
2013-03-26 22:23:00,57.0,22.0,29.97,SSE,153,0.0,0.0,25,0.00,,,0.00,,2013-03-27 04:23:00,
2013-03-26 22:33:00,56.0,22.0,29.97,SSE,153,0.0,0.0,26,0.00,,,0.00,,2013-03-27 04:33:00,
2013-03-26 22:42:00,56.0,22.0,29.97,SSE,153,0.0,0.0,26,0.00,,,0.00,,2013-03-27 04:42:00,
2013-03-26 22:52:00,57.0,22.0,29.97,SSE,153,0.0,0.0,26,0.00,,,0.00,,2013-03-27 04:52:00,
2013-03-26 23:02:00,57.0,22.0,29.98,SSE,153,0.0,0.0,26,0.00,,,0.00,,2013-03-27 05:02:00,
2013-03-26 23:12:00,57.0,22.0,29.98,SSE,153,0.0,0.0,26,0.00,,,0.00,,2013-03-27 05:12:00,
2013-03-26 23:23:00,56.0,22.0,29.98,SSE,153,0.0,0.0,26,0.00,,,0.00,,2013-03-27 05:23:00,
2013-03-26 23:33:00,56.0,22.0,29.98,SSE,153,0.0,0.0,26,0.00,,,0.00,,2013-03-27 05:33:00,
2013-03-26 23:42:00,56.0,22.0,29.98,SSE,153,0.0,0.0,26,0.00,,,0.00,,2013-03-27 05:42:00,
2013-03-26 23:52:00,55.0,21.0,29.98,SSE,154,0.0,0.0,26,0.00,,,0.00,,2013-03-27 05:52:00,